Torna al catalogo

WSF-M

AttivoMilitareSSO
NORAD 59481·PAYLOAD·🇺🇸 United States

Lanciato Apr 11, 2024 da Vandenberg Space Force Base

Loading…

Prossimi Passaggi (prossime 24 ore)

TLE

AggiornatoSource: Space-Track

Epoca: Sep 14, 2026, 07:29 UTC

1 59481U 24070A   26257.31218742  .00000014  00000-0  26721-4 0  9997
2 59481  98.7199 264.0618 0005818  70.5758 289.6048 14.20749766125756

Traccia WSF-M in tempo reale con AllMySat

Download on the App Store